x

Portland 12 Nm Southeast Of Portland,me (44007) Wave Buoy

11:50 - Sat 21st Jan 2017 All times are EST. -5 hours from GMT.

  • Sig Wave height 4.6ft
  • Swell Direction
  • Peak Period 14s
  • Average Period 9s
  • Wind
    2mph
  • Sea Temp 42°f
  • Air Temp 41°f
  • Sea Pressure 1006.9mb
  • Portland 12 Nm Southeast Of Portland,me
  • Portland 12 Nm Southeast Of Portland,me

More Historic Weather Station data

Upgrade to MSW Pro to gain access to the past 30 days of data for over 8000 Wavebouys and Weather Stations around the globe.

Join Pro

Comparision Forecast

View Surf forecast
   
sam. 01/21 11:50 4.5ft 14s 9s 2
mph
1006.9mb 42f 41f
10:50 4.5ft 13s 9s 2 4 mph 1006.7mb 42f 42f
9:50 4.5ft 12s 9s 2
mph
1007mb 42f 42f
8:50 4.5ft 13s 9s 2 4 mph 1007mb 42f 43f
7:50 4ft 11s 8s 4
mph
1006.6mb 42f 42f
6:50 4ft 11s 8s 2 4 mph 1007.2mb 42f 42f
5:50 4ft 12s 8s 4
mph
1006.6mb 42f 42f
4:50 3.5ft 12s 7s 4
mph
1006.1mb 42f 41f
3:50 4ft 13s 8s 7 9 mph 1006.2mb 41f 41f
2:50 4ft 11s 8s 9 11 mph 1006.7mb 41f 40f
1:50 4.5ft 11s 8s 4 7 mph 1006.2mb 41f 40f
12:50 5ft 11s 8s 9 11 mph 1006.9mb 41f 39f
11:50 5ft 11s 8s 9 13 mph 1008mb 41f 38f
10:50 4.5ft 10s 8s 4 7 mph 1008.9mb 42f 38f
9:50 4ft 10s 7s 9 11 mph 1009.9mb 42f 38f
8:50 3.5ft 11s 6s 16 18 mph 1009.8mb 42f 39f
7:50 4ft 11s 6s 13 18 mph 1009.4mb 42f 39f
6:50 3.5ft 12s 6s 16 18 mph 1009.8mb 42f 39f
5:50 3.5ft 11s 5s 16 18 mph 1009.9mb 42f 40f
4:50 3.5ft 11s 6s 18 20 mph 1010.4mb 42f 40f
3:50 3.5ft 11s 7s 13 16 mph 1011mb 42f 40f
2:50 3.5ft 11s 7s 9 11 mph 1012mb 42f 40f
1:50 3.5ft 11s 7s 11 13 mph 1012.5mb 42f 40f
12:50 3.5ft 10s 7s 9 11 mph 1012.3mb 42f 39f
ven. 01/20 11:50 3ft 9s 8s 9 11 mph 1012.9mb 42f 39f
10:50 3.5ft 10s 8s 9 11 mph 1013.6mb 42f 40f
9:50 3.5ft 10s 8s 11 13 mph 1013.6mb 42f 40f
8:50 3.5ft 11s 8s 9 11 mph 1013.9mb 42f 40f
7:50 3ft 10s 8s 7 9 mph 1014.3mb 42f 40f
6:50 3ft 10s 8s 4 7 mph 1014.3mb 43f 40f
5:50 3.5ft 11s 8s 4 9 mph 1014.4mb 42f 39f
4:50 3.5ft 11s 8s 2 7 mph 1014.7mb 42f 39f
3:50 4ft 11s 8s 2 4 mph 1014.8mb 42f 39f
2:50 4ft 11s 8s  -  mph 1015mb 42f 38f
1:50 3.5ft 11s 8s 4 7 mph 1015mb 42f 38f
12:50 4.5ft 10s 9s 9 11 mph 1015.5mb 42f 39f
11:50 4.5ft 11s 9s 7 9 mph 1016.4mb 42f 38f
10:50 4.5ft 11s 9s 9
mph
1017mb 42f 38f
9:50 4.5ft 10s 8s 11 13 mph 1017mb 42f 37f
8:50 5ft 10s 9s 9 11 mph 1016.9mb 42f 37f
7:50 4.5ft 10s 9s 9
mph
1017mb 42f 36f
6:50 4.5ft 11s 9s 7 9 mph 1016.5mb 43f 35f
5:50 4.5ft 11s 8s 9 11 mph 1016.3mb 43f 36f
4:50 4.5ft 11s 8s 9 11 mph 1016.1mb 43f 36f
3:50 6ft 11s 8s 11 13 mph 1015.6mb 44f 38f
2:50 5ft 9s 7s 13 18 mph 1015.2mb 43f 39f
1:50 5.5ft 11s 8s 16 22 mph 1015.1mb 42f 39f
12:50 5.5ft 11s 9s 11 13 mph 1015.7mb 41f 38f
jeu. 01/19 11:50 5.5ft 10s 9s 11 13 mph 1016.9mb 41f 38f
10:50 5ft 10s 9s 9 11 mph 1016.7mb 41f 38f
9:50 5ft 10s 8s 9 11 mph 1016.4mb 41f 39f
8:50 4.5ft 9s 8s 9 11 mph 1015.8mb 42f 39f
7:50 4.5ft 9s 8s 9 13 mph 1015.5mb 43f 39f
6:50 4.5ft 10s 7s 9 11 mph 1014.9mb 43f 40f
5:50 4ft 10s 7s 4
mph
1014.3mb 43f 40f
4:50 4ft 10s 7s 2
mph
1013.5mb 43f 39f
3:50 4.5ft 9s 7s 4
mph
1013.5mb 43f 37f
2:50 4.5ft 9s 7s 2 4 mph 1013.1mb 43f 37f
1:50 4.5ft 9s 7s 2 4 mph 1013.5mb 43f 37f
12:50 5ft 8s 7s 7 9 mph 1013.6mb 42f 33f
11:50 5.5ft 8s 7s 9 13 mph 1014.4mb 42f 32f
10:50 5ft 8s 7s 4 7 mph 1015.4mb 42f 32f
9:50 5.5ft 9s 7s 2 4 mph 1015.8mb 42f 31f
8:50 4.5ft 9s 7s 7 9 mph 1016.1mb 42f 30f
7:50 4.5ft 8s 6s 9 11 mph 1015.9mb 42f 29f
6:50 5ft 8s 6s 7 9 mph 1015.5mb 42f 29f
5:50 5ft 9s 6s 7 9 mph 1015.4mb 42f 29f
4:50 5ft 8s 6s 9 11 mph 1015.3mb 42f 29f
3:50 5.5ft 8s 6s 13 18 mph 1015.6mb 42f 29f
2:50 5ft 7s 6s 13 16 mph 1015.9mb 42f 28f
1:50 6.5ft 8s 6s 11 13 mph 1016.1mb 42f 29f
12:50 6ft 8s 6s 13 16 mph 1016.3mb 42f 28f
mer. 01/18 11:50 7ft 8s 6s 18 20 mph 1016.6mb 41f 29f
10:50 7.5ft 8s 6s 18 20 mph 1016.9mb 41f 30f
9:50 7.5ft 9s 6s 16 18 mph 1017.3mb 41f 31f
8:50 7ft 8s 6s 16 18 mph 1017.8mb 41f 31f
7:50 8ft 8s 6s 18 22 mph 1018.1mb 41f 32f
6:50 8.5ft 9s 6s 20 22 mph 1018.4mb 41f 32f
5:50 9ft 8s 6s 20 27 mph 1017.6mb 42f 36f
4:50 8ft 8s 6s 22 27 mph 1017mb 42f 35f
3:50 8.5ft 9s 6s 22 29 mph 1017mb 42f 36f
2:50 8.5ft 8s 6s 25 29 mph 1016.9mb 42f 34f
1:50 9ft 8s 6s 25 29 mph 1016.4mb 42f 36f
12:50 8ft 8s 6s 22 27 mph 1016.2mb 42f 36f
11:50 7ft 7s 5s 22 27 mph 1016.6mb 42f 37f
10:50 5.5ft 6s 5s 22 25 mph 1017.2mb 41f 37f
9:50 4.5ft 6s 5s 22 27 mph 1018.2mb 41f 31f
8:50 4.5ft 6s 4s 22 25 mph 1018.4mb 41f 30f
7:50 4.5ft 5s 4s 22 27 mph 1018.2mb 41f 31f
6:50 4.5ft 6s 4s 22 25 mph 1018.2mb 42f 30f